Current weather by "City, St" or "zip code"  
 
Advertise Here

Current Conditions: Iowa City Municipal Airport, IA

Overcast


26.0 F

Last Updated on Jan 25 2021, 2:52 am CST
Humidity: 81%
Wind Speed: NE 10.4 mph
Barometer 30.07 in
Dewpoint: 21.0 F
Visibility: 10.00 mi
Precip: --
Heat Index: NA
Wind Chill: 16 F
Current conditions at:

Iowa City Municipal Airport, IA (KIOW)

Lat: 41.63945 Lon: 91.5445

Local Radar Image active severe weather and emergency alerts image image weather storm and storm spotter reports image weather observation monitoring service image
Local
Radar
Active
Alerts
Storm Reports Obs
Monitoring

Sign-up For Email & Text Message Weather Alert Notification Services


Advertise Here

Observation History for Iowa City Municipal Airport, IA


Time Wind
(mph)
Vis
(mi)
Weather Precip (in) Temperature (F) Relative
Humidity
Wind
Chill
(F)
Heat
Index
(F)
Pressure
Air Dwpt altimeter
(in)
sea level
(mb)
Rmks
2:52 am CST NE 10.4 10.00 Overcast -- 26.0 21.0 81% 16 NA 30.07 1019.2
1:52 am CST E 10.4 10.00 Overcast -- 28.0 21.9 78% 19 NA 30.08 1019.5
12:52 am CST NE 9.2 10.00 Overcast -- 28.0 21.9 78% 19 NA 30.12 1020.8
11:52 pm CST E 8.1 10.00 Overcast -- 28.0 21.9 78% 20 NA 30.11 1020.6
10:52 pm CST NE 9.2 10.00 Overcast -- 28.0 23.0 81% 19 NA 30.11 1020.4
9:52 pm CST NE 5.8 10.00 Overcast -- 28.0 23.0 81% 22 NA 30.10 1020.0
8:52 pm CST NE 8.1 10.00 Overcast -- 28.0 21.9 78% 20 NA 30.10 1020.1
7:52 pm CST NE 6.9 10.00 Mostly Cloudy -- 28.0 21.9 78% 21 NA 30.12 1020.6
6:52 pm CST NE 9.2 10.00 Overcast -- 29.0 23.0 78% 20 NA 30.12 1020.6
5:52 pm CST NE 4.6 10.00 Overcast -- 29.0 23.0 78% 24 NA 30.13 1021.0
4:52 pm CST NE 6.9 10.00 Fair -- 29.0 23.0 78% 22 NA 30.10 1020.0
3:52 pm CST N 6.9 10.00 Fair -- 32.0 24.1 73% 26 NA 30.08 1019.2
2:52 pm CST N 4.6 10.00 Mostly Cloudy -- 34.0 26.1 73% 30 NA 30.08 1019.4
1:52 pm CST NW 9.2 10.00 Overcast -- 34.0 26.1 73% 27 NA 30.06 1018.8
12:52 pm CST N 9.2 10.00 Overcast -- 34.0 26.1 73% 27 NA 30.07 1019.2
11:52 am CST NW 8.1 10.00 Partly Cloudy -- 34.0 25.0 70% 27 NA 30.08 1019.2
10:52 am CST NW 8.1 10.00 Overcast -- 33.0 25.0 72% 26 NA 30.09 1019.7
9:52 am CST N 0.0 10.00 Overcast -- 30.0 26.1 85% NA NA 30.08 1019.5
8:52 am CST N 0.0 10.00 Overcast -- 29.0 25.0 85% NA NA 30.07 1019.0
7:52 am CST N 3.5 10.00 Overcast -- 29.0 24.1 82% NA NA 30.05 1018.5
6:52 am CST N 0.0 10.00 Overcast -- 29.0 24.1 82% NA NA 30.04 1018.1
5:52 am CST N 0.0 10.00 Overcast -- 29.0 24.1 82% NA NA 30.03 1017.7
4:52 am CST SE 4.6 10.00 Overcast -- 29.0 24.1 82% 24 NA 30.03 1017.7
3:52 am CST SE 4.6 10.00 Overcast -- 28.0 25.0 88% 23 NA 30.04 1018.1

Regional Weather Observation


Iowa City Municipal Airport, IA (KIOW)

Overcast
26.0 F

Washington, IA (KAWG)

Fog/Mist
28.0 F

Muscatine, IA (KMUT)

Overcast
30.0 F

Monticello Regional Airport, IA (KMXO)

Fog/Mist
7.0 F

Vinton, Vinton Veterans Memorial Airpark Airport, IA (KVTI)

Fair
13.0 F

Fairfield Municipal Airport, IA (KFFL)

Fog/Mist
28.0 F